Simultaneous Nadir Overpasses (SNOs) Predictions

Prediction of SNOs between LANDSAT-8 and METOP-B Satellite Orbit:

Table of predicted SNOs for the next 14.0 days since TLE Epoch: 6/8/2018
Index Date (LANDSAT-8) Time (LANDSAT-8) Lat,Lon (LANDSAT-8) SZA (LANDSAT-8 ) Date (METOP-B) Time (METOP-B) Lat,Lon (METOP-B) SZA (METOP-B ) Distance(km) Time Diff (sec)
1 06/11/2018 07:36:21 81.22, 107.32 60.45 06/11/2018 07:35:32 81.22, 107.51 60.45 3.17 49
2 06/11/2018 08:25:48 -81.21, -85.08 119.57 06/11/2018 08:26:13 -81.22, -85.13 119.56 0.94 25
3 06/14/2018 03:10:39 81.20, 173.49 60.23 06/14/2018 03:09:53 81.21, 173.63 60.23 2.52 46
4 06/14/2018 04:00:05 -81.22, -18.50 119.73 06/14/2018 04:00:33 -81.22, -18.61 119.73 1.88 28
5 06/16/2018 22:44:56 81.21,-119.98 60.11 06/16/2018 22:44:13 81.21,-119.87 60.11 1.89 43
6 06/16/2018 23:34:22 -81.23, 48.05 119.84 06/16/2018 23:34:53 -81.22, 47.88 119.84 2.93 31
7 06/19/2018 18:19:12 81.21, -53.47 60.05 06/19/2018 18:18:32 81.21, -53.39 60.04 1.36 40
8 06/19/2018 19:08:38 -81.24, 114.59 119.89 06/19/2018 19:09:11 -81.24, 114.75 119.86 2.73 33
9 06/22/2018 13:53:29 81.22, 13.03 60.04 06/22/2018 13:52:52 81.22, 13.08 60.03 0.94 37




NCC Satellite Simultaneous Nadir Overpasses (SNOs) Prediction Service
